{"data":{"norad_id":69787,"epoch":"2026-09-20T04:00:03.000096Z","epoch_age_seconds":55524,"freshness":"FRESH","line1":"1 69787U 26151AA  26263.16670139 -.00015288  00000+0 -19814-2 0  9994","line2":"2 69787  51.8984 225.6787 0002320 125.2350 185.9653 14.79919588  5324","mean_motion":14.79919588,"eccentricity":0.000232,"inclination_deg":51.8984,"raan_deg":225.6787,"arg_perigee_deg":125.235,"mean_anomaly_deg":185.9653,"bstar":-0.0019814,"rev_number":532,"period_min":97.302583983367,"perigee_km":627.9521779827,"apogee_km":631.20375772778,"semimajor_km":7007.7149678552,"source":"CELESTRAK","updated_at":"2026-09-20T09:00:25.095270Z"}}